DW7027 Weather Reports


Display with metric or nautical units.
time (UTC)temp
F
wind
direction
speed
MPH
gust
MPH
rain 1hr
in
rain 24hr
in
rain mn
in
humidity
%
barometer
mb
20260509061204 55 44 9.0 15.0 0.00 0.00 0.00 77 1024.4
20260509060704 55 54 6.0 13.0 0.00 0.00 0.00 78 1024.1
20260509055704 54 25 6.0 12.0 0.00 0.00 0.00 80 1023.9
20260509055204 53 52 8.0 13.0 0.00 0.00 0.00 81 1023.9
20260509054704 53 8 7.0 12.0 0.00 0.00 0.00 82 1024.0
20260509054204 52 36 7.0 13.0 0.00 0.00 0.00 82 1023.9
20260509053704 52 30 5.0 10.0 0.00 0.00 0.00 83 1023.8
20260509053204 51 21 5.0 10.0 0.00 0.00 0.00 83 1023.8
20260509052704 51 11 3.0 10.0 0.00 0.00 0.00 84 1023.9
20260509052204 50 13 3.0 7.0 0.00 0.00 0.00 84 1023.8
20260509051704 50 36 4.0 7.0 0.00 0.00 0.00 84 1023.8
20260509051204 50 34 3.0 7.0 0.00 0.00 0.00 84 1023.9
20260509050704 49 17 3.0 6.0 0.00 0.00 0.00 84 1023.8
20260509050204 49 353 3.0 6.0 0.00 0.00 0.00 84 1023.7
20260509045204 49 4 2.0 6.0 0.00 0.00 0.00 85 1023.7
20260509044203 49 356 3.0 5.0 0.00 0.00 0.00 85 1023.6
20260509043704 49 354 4.0 7.0 0.00 0.00 0.00 85 1023.6
20260509043204 48 4 3.0 6.0 0.00 0.00 0.00 85 1023.6
20260509042704 48 4 3.0 6.0 0.00 0.00 0.00 85 1023.5
20260509042203 48 0 3.0 6.0 0.00 0.00 0.00 85 1023.6
20260509041704 48 357 3.0 6.0 0.00 0.00 0.00 85 1023.5
20260509041203 48 4 2.0 3.0 0.00 0.00 0.00 84 1023.6
20260509040704 48 3 2.0 3.0 0.00 0.00 0.00 84 1023.4
20260509035204 48 7 2.0 3.0 0.00 0.00 0.00 84 1023.6
20260509034704 48 356 2.0 3.0 0.00 0.00 0.00 83 1023.6
20260509034204 48 358 1.0 3.0 0.00 0.00 0.00 83 1023.4
20260509033205 48 15 2.0 6.0 0.00 0.00 0.00 83 1023.6
20260509032704 49 15 3.0 5.0 0.00 0.00 0.00 83 1023.3
20260509031703 49 20 3.0 7.0 0.00 0.00 0.00 82 1023.5
20260509031204 49 33 3.0 7.0 0.00 0.00 0.00 82 1023.4
20260509030704 49 13 5.0 7.0 0.00 0.00 0.00 82 1023.3
20260509030204 49 11 5.0 7.0 0.00 0.00 0.00 82 1023.3
20260509025704 49 27 4.0 7.0 0.00 0.00 0.00 82 1023.2
20260509025204 49 22 4.0 7.0 0.00 0.00 0.00 82 1023.3
20260509024704 50 9 3.0 7.0 0.00 0.00 0.00 82 1023.2
20260509024204 50 5 5.0 8.0 0.00 0.00 0.00 82 1023.2
20260509023704 50 2 6.0 9.0 0.00 0.00 0.00 82 1023.3
20260509023204 50 9 3.0 9.0 0.00 0.00 0.00 82 1023.1
20260509022204 50 5 3.0 8.0 0.00 0.00 0.00 82 1023.3
20260509021704 50 14 4.0 7.0 0.00 0.00 0.00 82 1023.3
20260509021204 50 5 5.0 10.0 0.00 0.00 0.00 82 1023.2
20260509020704 50 24 5.0 10.0 0.00 0.00 0.00 82 1023.1
20260509015703 50 2 4.0 12.0 0.00 0.00 0.00 82 1023.0
20260509015204 50 19 4.0 8.0 0.00 0.00 0.00 82 1023.2
20260509014204 50 0 5.0 8.0 0.00 0.00 0.00 82 1023.1
20260509013704 50 22 5.0 8.0 0.00 0.00 0.00 82 1023.2
20260509013204 50 38 2.0 6.0 0.00 0.00 0.00 82 1023.3
20260509012704 50 357 4.0 7.0 0.00 0.00 0.00 81 1023.3
20260509011704 50 9 3.0 7.0 0.00 0.00 0.00 81 1023.2
20260509010704 51 5 3.0 6.0 0.00 0.00 0.00 81 1023.2
20260509010204 51 5 5.0 8.0 0.00 0.00 0.00 81 1023.0
20260509005704 51 1 5.0 10.0 0.00 0.00 0.00 81 1023.2
20260509005204 51 2 6.0 10.0 0.00 0.00 0.00 81 1023.3
20260509004704 51 18 4.0 9.0 0.00 0.00 0.00 81 1023.3
20260509004204 51 355 5.0 9.0 0.00 0.00 0.00 81 1023.3
20260509003705 51 5 4.0 7.0 0.00 0.00 0.00 81 1023.3
20260509003204 51 7 5.0 8.0 0.00 0.00 0.00 81 1023.3
20260509002204 51 350 5.0 9.0 0.00 0.00 0.00 81 1023.4
20260509001704 51 354 5.0 8.0 0.00 0.00 0.00 81 1023.4
20260509001204 52 0 5.0 10.0 0.00 0.00 0.00 80 1023.5
20260509000204 52 6 5.0 9.0 0.00 0.00 0.00 80 1023.3
20260508235704 52 354 3.0 8.0 0.00 0.00 0.00 80 1023.3
20260508235203 52 1 5.0 9.0 0.00 0.00 0.00 79 1023.5
20260508234704 52 0 5.0 9.0 0.00 0.00 0.00 79 1023.5
20260508234204 52 0 5.0 9.0 0.00 0.00 0.00 79 1023.6
20260508233704 52 4 4.0 7.0 0.00 0.00 0.00 79 1023.4
20260508233204 53 358 3.0 6.0 0.00 0.00 0.00 79 1023.3
20260508232704 53 357 4.0 7.0 0.00 0.00 0.00 79 1023.4
20260508232204 53 0 4.0 7.0 0.00 0.00 0.00 79 1023.5
20260508231704 53 349 3.0 7.0 0.00 0.00 0.00 78 1023.5
20260508231204 53 10 2.0 6.0 0.00 0.00 0.00 78 1023.6
20260508230703 53 0 3.0 6.0 0.00 0.00 0.00 78 1023.4
20260508230204 53 12 2.0 6.0 0.00 0.00 0.00 78 1023.4
20260508225705 53 347 3.0 5.0 0.00 0.00 0.00 77 1023.4
20260508225204 53 357 2.0 6.0 0.00 0.00 0.00 77 1023.4
20260508224704 53 353 3.0 5.0 0.00 0.00 0.00 77 1023.5
20260508224204 53 1 5.0 8.0 0.00 0.00 0.00 77 1023.4
20260508223704 53 352 4.0 8.0 0.00 0.00 0.00 77 1023.4
20260508223204 53 6 5.0 10.0 0.00 0.00 0.00 77 1023.4
20260508222704 53 343 3.0 8.0 0.00 0.00 0.00 77 1023.5
20260508222204 53 17 5.0 8.0 0.00 0.00 0.00 77 1023.2
20260508221704 53 3 3.0 6.0 0.00 0.00 0.00 77 1023.2
20260508221204 53 7 5.0 10.0 0.00 0.00 0.00 77 1023.3
20260508220704 53 0 5.0 10.0 0.00 0.00 0.00 76 1023.1
20260508220204 53 6 5.0 9.0 0.00 0.00 0.00 76 1023.3
20260508215704 53 9 5.0 9.0 0.00 0.00 0.00 76 1023.1
20260508214704 53 16 5.0 9.0 0.00 0.00 0.00 76 1023.1
20260508214204 54 3 3.0 8.0 0.00 0.00 0.00 76 1023.0
20260508213704 54 11 3.0 8.0 0.00 0.00 0.00 76 1022.9
20260508213204 54 6 4.0 8.0 0.00 0.00 0.00 76 1022.9
20260508210704 54 355 4.0 7.0 0.00 0.00 0.00 75 1022.8
20260508205704 54 358 4.0 7.0 0.00 0.00 0.00 75 1022.7
20260508205204 54 353 4.0 7.0 0.00 0.00 0.00 74 1022.8
20260508204704 54 3 5.0 8.0 0.00 0.00 0.00 74 1022.7
20260508203705 55 0 3.0 6.0 0.00 0.00 0.00 73 1022.6
20260508203203 55 15 3.0 6.0 0.00 0.00 0.00 73 1022.5
20260508202204 55 18 3.0 5.0 0.00 0.00 0.00 72 1022.5
20260508201704 55 13 3.0 6.0 0.00 0.00 0.00 72 1022.5
20260508201204 56 3 5.0 6.0 0.00 0.00 0.00 71 1022.6
20260508200704 56 0 4.0 6.0 0.00 0.00 0.00 71 1022.7
20260508195704 56 4 5.0 7.0 0.00 0.00 0.00 71 1022.2
20260508195204 56 0 4.0 9.0 0.00 0.00 0.00 71 1022.2
20260508194704 56 357 4.0 7.0 0.00 0.00 0.00 71 1022.3
20260508194203 57 7 3.0 6.0 0.00 0.00 0.00 69 1022.2
20260508193704 57 13 3.0 7.0 0.00 0.00 0.00 69 1022.2
20260508193204 57 29 3.0 6.0 0.00 0.00 0.00 68 1022.1
20260508191704 58 38 3.0 6.0 0.00 0.00 0.00 67 1022.0
20260508191204 58 4 5.0 7.0 0.00 0.00 0.00 67 1021.9
20260508190704 59 19 5.0 8.0 0.00 0.00 0.00 66 1022.1
20260508190204 59 16 6.0 9.0 0.00 0.00 0.00 66 1021.9
20260508185704 59 7 5.0 10.0 0.00 0.00 0.00 66 1021.7
20260508185204 60 9 5.0 9.0 0.00 0.00 0.00 65 1021.6
20260508183704 61 10 7.0 13.0 0.00 0.00 0.00 64 1021.5
20260508183204 61 4 6.0 10.0 0.00 0.00 0.00 64 1021.2
20260508182704 61 6 5.0 12.0 0.00 0.00 0.00 62 1021.2
20260508182204 62 10 6.0 14.0 0.00 0.00 0.00 62 1021.0
20260508181704 62 23 7.0 14.0 0.00 0.00 0.00 60 1021.1
20260508181204 62 43 6.0 14.0 0.00 0.00 0.00 60 1021.1
20260508180205 63 37 6.0 13.0 0.00 0.00 0.00 57 1020.8
20260508175704 64 40 7.0 16.0 0.00 0.00 0.00 56 1020.5
20260508175204 64 24 7.0 17.0 0.00 0.00 0.00 56 1020.5
20260508174704 64 5 7.0 13.0 0.00 0.00 0.00 54 1020.6
20260508174204 65 2 7.0 15.0 0.00 0.00 0.00 53 1020.5
20260508173704 65 33 7.0 13.0 0.00 0.00 0.00 52 1020.3
20260508173206 65 13 6.0 10.0 0.00 0.00 0.00 51 1020.4
20260508172705 66 13 6.0 10.0 0.00 0.00 0.00 50 1020.1
20260508171704 66 38 5.0 9.0 0.00 0.00 0.00 49 1020.2
20260508171204 67 14 4.0 8.0 0.00 0.00 0.00 48 1020.1
20260508170704 67 19 3.0 6.0 0.00 0.00 0.00 48 1020.2
20260508170204 67 359 6.0 9.0 0.00 0.00 0.00 47 1020.1
20260508165704 67 7 5.0 12.0 0.00 0.00 0.00 47 1020.3
20260508164704 68 35 4.0 10.0 0.00 0.00 0.00 45 1020.3
20260508163704 68 329 5.0 8.0 0.00 0.00 0.00 43 1020.3
20260508162204 69 3 4.0 8.0 0.00 0.00 0.00 43 1020.3
20260508161705 69 0 4.0 8.0 0.00 0.00 0.00 42 1020.5
20260508161204 70 347 5.0 12.0 0.00 0.00 0.00 42 1020.3
20260508160704 70 342 6.0 12.0 0.00 0.00 0.00 42 1020.4
20260508160204 70 319 4.0 9.0 0.00 0.00 0.00 43 1020.4
20260508155704 70 324 1.0 7.0 0.00 0.00 0.00 43 1020.3
20260508155204 70 7 3.0 8.0 0.00 0.00 0.00 42 1020.4
20260508154704 71 302 2.0 6.0 0.00 0.00 0.00 43 1020.3
20260508152705 71 348 5.0 8.0 0.00 0.00 0.00 41 1020.4
20260508152204 72 326 6.0 13.0 0.00 0.00 0.00 40 1020.4
20260508151704 72 342 5.0 12.0 0.00 0.00 0.00 41 1020.4
20260508151205 72 278 5.0 12.0 0.00 0.00 0.00 41 1020.4
20260508150204 71 287 6.0 9.0 0.00 0.00 0.00 41 1020.4
20260508145705 71 293 3.0 9.0 0.00 0.00 0.00 42 1020.4
20260508145204 71 345 6.0 14.0 0.00 0.00 0.00 41 1020.6
20260508144704 71 331 6.0 9.0 0.00 0.00 0.00 41 1020.4
20260508144204 72 338 6.0 9.0 0.00 0.00 0.00 39 1020.6
20260508143704 72 332 6.0 10.0 0.00 0.00 0.00 41 1020.7
20260508143204 71 291 3.0 6.0 0.00 0.00 0.00 43 1020.6
20260508142204 71 350 5.0 10.0 0.00 0.00 0.00 41 1020.8
20260508141704 72 327 3.0 8.0 0.00 0.00 0.00 40 1020.8
20260508141204 72 271 2.0 8.0 0.00 0.00 0.00 42 1020.8
20260508140205 71 291 3.0 10.0 0.00 0.00 0.00 41 1020.8
20260508135704 71 275 4.0 9.0 0.00 0.00 0.00 42 1020.9
20260508135204 72 321 6.0 10.0 0.00 0.00 0.00 42 1021.0
20260508134704 72 289 7.0 10.0 0.00 0.00 0.00 42 1021.0
20260508134204 71 247 3.0 5.0 0.00 0.00 0.00 44 1020.8
20260508133704 70 275 3.0 7.0 0.00 0.00 0.00 44 1020.9
20260508133205 70 311 4.0 9.0 0.00 0.00 0.00 45 1021.2
20260508132704 69 282 4.0 8.0 0.00 0.00 0.00 45 1021.1
20260508132204 70 275 3.0 10.0 0.00 0.00 0.00 44 1021.2
20260508131704 70 320 3.0 9.0 0.00 0.00 0.00 44 1021.3
20260508131204 71 319 4.0 8.0 0.00 0.00 0.00 44 1021.1
20260508130705 71 311 2.0 8.0 0.00 0.00 0.00 43 1021.1
20260508130205 72 280 7.0 10.0 0.00 0.00 0.00 43 1021.1
20260508125704 72 184 3.0 5.0 0.00 0.00 0.00 43 1021.2
20260508125204 72 268 5.0 12.0 0.00 0.00 0.00 44 1021.5
20260508124704 71 346 5.0 12.0 0.00 0.00 0.00 43 1021.2
20260508123704 70 303 4.0 10.0 0.00 0.00 0.00 45 1021.3
20260508123204 70 287 5.0 9.0 0.00 0.00 0.00 45 1021.3
20260508122204 69 297 5.0 12.0 0.00 0.00 0.00 45 1021.4
20260508121704 69 258 3.0 10.0 0.00 0.00 0.00 45 1021.3
20260508121204 69 353 5.0 9.0 0.00 0.00 0.00 45 1021.2
20260508120704 70 324 4.0 10.0 0.00 0.00 0.00 45 1021.2
20260508120204 70 346 5.0 10.0 0.00 0.00 0.00 44 1021.3
20260508115704 69 3 7.0 10.0 0.00 0.00 0.00 47 1021.2
20260508115204 69 277 2.0 9.0 0.00 0.00 0.00 47 1021.3
20260508114704 68 359 5.0 8.0 0.00 0.00 0.00 47 1021.2
20260508114204 69 346 5.0 9.0 0.00 0.00 0.00 45 1021.5
20260508113205 70 286 4.0 10.0 0.00 0.00 0.00 46 1021.5
20260508112704 70 277 3.0 9.0 0.00 0.00 0.00 47 1021.7
20260508112204 71 302 3.0 7.0 0.00 0.00 0.00 47 1021.4
20260508111704 70 44 6.0 10.0 0.00 0.00 0.00 49 1021.3
20260508111204 69 199 2.0 7.0 0.00 0.00 0.00 47 1021.5
20260508110704 69 328 5.0 9.0 0.00 0.00 0.00 49 1021.6
20260508110204 68 350 3.0 7.0 0.00 0.00 0.00 50 1021.6
20260508105704 68 295 5.0 9.0 0.00 0.00 0.00 49 1021.6
20260508105204 68 293 7.0 10.0 0.00 0.00 0.00 49 1021.7
20260508104704 68 310 3.0 5.0 0.00 0.00 0.00 50 1021.7
20260508104204 69 335 3.0 7.0 0.00 0.00 0.00 49 1021.6
20260508103704 69 328 3.0 8.0 0.00 0.00 0.00 50 1021.8
20260508103205 69 348 6.0 10.0 0.00 0.00 0.00 52 1021.7
20260508102704 68 358 6.0 10.0 0.00 0.00 0.00 51 1021.7
20260508102204 68 322 3.0 5.0 0.00 0.00 0.00 51 1021.8
20260508101705 67 193 1.0 7.0 0.00 0.00 0.00 52 1021.8
20260508101204 67 282 5.0 9.0 0.00 0.00 0.00 54 1021.8
20260508100705 67 282 5.0 14.0 0.00 0.00 0.00 53 1021.8
20260508100204 67 287 5.0 13.0 0.00 0.00 0.00 54 1022.0
20260508095704 67 330 4.0 10.0 0.00 0.00 0.00 54 1021.9
20260508095204 67 341 2.0 7.0 0.00 0.00 0.00 55 1022.0
20260508094705 66 314 3.0 7.0 0.00 0.00 0.00 56 1022.0
20260508094205 65 306 3.0 6.0 0.00 0.00 0.00 58 1022.0
20260508093704 65 338 5.0 7.0 0.00 0.00 0.00 56 1022.0
20260508093204 66 328 3.0 9.0 0.00 0.00 0.00 55 1022.0
20260508092704 67 285 5.0 8.0 0.00 0.00 0.00 57 1021.9
20260508091705 65 356 4.0 8.0 0.00 0.00 0.00 59 1022.0
20260508091205 65 324 4.0 9.0 0.00 0.00 0.00 58 1021.9
20260508090704 66 285 7.0 12.0 0.00 0.00 0.00 57 1022.2
20260508090204 66 313 4.0 6.0 0.00 0.00 0.00 57 1022.1
20260508085704 66 301 2.0 6.0 0.00 0.00 0.00 57 1022.2
20260508085204 66 348 3.0 10.0 0.00 0.00 0.00 58 1022.1
20260508084704 66 347 5.0 10.0 0.00 0.00 0.00 60 1022.0
20260508084204 66 0 2.0 5.0 0.00 0.00 0.00 61 1022.1
20260508083704 66 343 3.0 8.0 0.00 0.00 0.00 60 1022.0
20260508083204 66 349 6.0 9.0 0.00 0.00 0.00 60 1022.0
20260508082204 67 347 5.0 9.0 0.00 0.00 0.00 61 1022.1
20260508081705 66 353 2.0 7.0 0.00 0.00 0.00 63 1021.7
20260508081204 65 290 4.0 7.0 0.00 0.00 0.00 64 1022.0
20260508080704 65 286 5.0 8.0 0.00 0.00 0.00 64 1021.9
20260508080204 65 348 3.0 8.0 0.00 0.00 0.00 65 1021.8
20260508075705 65 343 2.0 8.0 0.00 0.00 0.00 65 1021.9
20260508075204 64 357 3.0 6.0 0.00 0.00 0.00 66 1022.1
20260508074204 63 48 3.0 6.0 0.00 0.00 0.00 71 1021.9
20260508073205 61 4 3.0 6.0 0.00 0.00 0.00 73 1022.0
20260508072704 61 346 2.0 6.0 0.00 0.00 0.00 73 1022.0
20260508072204 61 346 3.0 7.0 0.00 0.00 0.00 74 1022.1
20260508071705 61 353 4.0 7.0 0.00 0.00 0.00 74 1022.0
20260508071204 60 282 3.0 6.0 0.00 0.00 0.00 76 1022.2
20260508070704 60 340 3.0 8.0 0.00 0.00 0.00 75 1022.1
20260508070204 60 341 4.0 8.0 0.00 0.00 0.00 75 1022.0
20260508065704 60 79 2.0 7.0 0.00 0.00 0.00 76 1021.9
20260508065204 59 6 3.0 7.0 0.00 0.00 0.00 77 1021.8
20260508064705 59 306 3.0 5.0 0.00 0.00 0.00 77 1021.9
20260508064205 58 337 4.0 8.0 0.00 0.00 0.00 78 1021.7
20260508063704 58 12 2.0 7.0 0.00 0.00 0.00 78 1021.7
20260508063204 57 356 3.0 6.0 0.00 0.00 0.00 78 1021.9
20260508062704 57 290 3.0 6.0 0.00 0.00 0.00 78 1021.9
20260508062205 57 353 2.0 6.0 0.00 0.00 0.00 78 1021.6
20260508061705 56 354 3.0 6.0 0.00 0.00 0.00 79 1021.8